Regional Weather Roundup
Issued by NWS Green Bay, WI

Home | Current Version | Previous Version | Text Only | Print | Product List | Glossary On
Versions: 1 2 3 4 5 6 7 8 9 10 11 12 13 14 15 16 17 18 19 20 21 22 23 24 25 26 27 28 29 30 31 32 33 34 35 36 37 38 39 40 41 42 43 44 45 46 47 48 49 50
000
ASUS43 KGRB 290011
RWRGRB

NORTH-CENTRAL AND NORTHEAST WISCONSIN REGIONAL WEATHER ROUNDUP
NATIONAL WEATHER SERVICE GREEN BAY WI
700 PM CDT TUE JUL 28 2015

WIZ005-009-010>012-018-019-290100-
NORTH CENTRAL WISCONSIN

CITY           SKY/WX    TMP DP  RH WIND       PRES   REMARKS
IRONWOOD       SUNNY     82  70  65 S12       29.78F
MANITOWISH WTR SUNNY     78  69  73 S8        29.87S
ARBOR VITAE    SUNNY     80  68  68 S8        29.88S
EAGLE RIVER    MOSUNNY   79  64  58 S8        29.89F
LAND O LAKES   SUNNY     81  64  57 S6        29.90F
RHINELANDER    MOSUNNY   80  67  64 S8        29.90F
PHILLIPS       CLOUDY    79  70  73 S7        29.87R
ANTIGO         PTSUNNY   79  69  70 S13       29.92S
TOMAHAWK       MOSUNNY   79  67  67 S5        29.89S
MERRILL        NOT AVBL
$$

WIZ013-073-290100-
NORTHEAST WISCONSIN

CITY           SKY/WX    TMP DP  RH WIND       PRES   REMARKS
IRON MOUNTAIN  PTSUNNY   81  66  60 SE9       29.89F
MARINETTE      MOSUNNY   79  63  57 S9        29.89F
OCONTO         PTSUNNY   80  67  65 S9        29.89F
$$

WIZ017-030-035>037-045-290100-
CENTRAL WISCONSIN

CITY           SKY/WX    TMP DP  RH WIND       PRES   REMARKS
MEDFORD        PTSUNNY   77  70  79 S10       29.90R
WAUSAU         MOSUNNY   82  68  62 S16       29.87F
MOSINEE        MOSUNNY   79  72  78 S9        29.90F
MARSHFIELD     MOSUNNY   80  69  69 S7        29.89S
WISC RAPIDS    MOSUNNY   83  70  64 SW12      29.89F
STEVENS POINT  CLOUDY    81  69  67 S10       29.89S
WAUPACA        MOSUNNY   84  71  63 S7        29.89F
SHAWANO        MOSUNNY   85  67  54 S3        29.89S
CLINTONVILLE   MOSUNNY   82  66  57 S8        29.88F
$$

WIZ038-039-048-051-290100-
FOX VALLEY

CITY           SKY/WX    TMP DP  RH WIND       PRES   REMARKS
NWS GREEN BAY  MOSUNNY   82  65  56 S14       29.90F
APPLETON       PTSUNNY   81  63  54 S13       29.91F
OSHKOSH        MOSUNNY   81  67  62 S8        29.89F
FOND DU LAC    MOSUNNY   82  68  62 SE12      29.90F
$$

WIZ022-050-052-290100-
EAST CENTRAL WISCONSIN

CITY           SKY/WX    TMP DP  RH WIND       PRES   REMARKS
STURGEON BAY   PTSUNNY   77  63  61 S12       29.94S
MANITOWOC      PTSUNNY   78  66  66 MISG      29.93S
SHEBOYGAN      CLOUDY    79  67  66 SE6       29.93S
$$

LMZ563-521-522-541>543-290100-
LAKESHORE

STATION/POSITION TIME  TEMP    WIND        PRES    VSBY  WAVE
                       AIR SEA DIR/SP/G                  HT/PER
                 (UTC) (F)     (DEG/KT/KT) (MB)    (MI)  (FT/S)
SHEBOYGAN LKSHOR 0000   75     170/  5/  6 1013.5F
KEWAUNEE LKSHORE 2300   71     180/ 11/ 11 1013.1R
ALGOMA MARINA    2342          210/ 12/ 13   N/A
NORTHPORT PIER   2300   75     150/  7/  9 1012.9S
N MID LAKE BUOY  2350   72 71  170/  6/  6 1012.7S         0
S GREEN BAY BUOY 0000   79 76  170/ 16/ 17 1014.1S
SISTER BAY LKSHO 2314   80     190/ 13/ 17   N/A
CHAMBERS ISLAND  2300   80     140/  4/ 11 1012.2F
MENOMINEE LKSHOR 2300   77     160/  9/ 14 1013.5S
$$



USA.gov is the U.S. government's official web portal to all federal, state and local government web resources and services.